QPF
0.00 0.01 0.00 0.00 0.00 0.01 0.01 0.01 0.01 0.02 0.01 0.02 0.04 0.06 0.05 0.04 0.04 0.04 0.05 0.04 0.02 0.02 0.03 0.03 0.03 0.03 0.04 0.04 0.04 0.05 0.05 0.07 0.08 0.08 0.06 0.04 0.05 0.06
0.00 0.00 0.01 0.01 0.00 0.01 0.02 0.01 0.01 0.02 0.02 0.02 0.03 0.04 0.05 0.04 0.03 0.03 0.04 0.04 0.03 0.03 0.03 0.03 0.03 0.03 0.03 0.04 0.04 0.03 0.02 0.03 0.04 0.06 0.07 0.06 0.04 0.03
0.00 0.00 0.00 0.01 0.01 0.01 0.01 0.01 0.02 0.02 0.02 0.03 0.03 0.04 0.05 0.05 0.03 0.02 0.03 0.03 0.02 0.03 0.03 0.03 0.02 0.02 0.03 0.02 0.02 0.02 0.02 0.02 0.02 0.03 0.04 0.05 0.04 0.03
0.00 0.00 0.00 0.00 0.00 0.01 0.00 0.01 0.01 0.02 0.03 0.04 0.04 0.04 0.05 0.06 0.06 0.05 0.03 0.03 0.02 0.02 0.02 0.03 0.02 0.02 0.02 0.02 0.01 0.01 0.01 0.01 0.02 0.02 0.03 0.03 0.04 0.03
0.00 0.00 0.00 0.00 0.00 0.01 0.01 0.00 0.01 0.01 0.03 0.04 0.04 0.03 0.05 0.07 0.07 0.06 0.05 0.05 0.05 0.04 0.03 0.03 0.03 0.02 0.02 0.02 0.01 0.01 0.01 0.02 0.01 0.01 0.02 0.03 0.03 0.03
0.00 0.00 0.00 0.00 0.00 0.00 0.00 0.00 0.01 0.01 0.02 0.04 0.04 0.03 0.04 0.06 0.07 0.05 0.05 0.05 0.07 0.08 0.06 0.04 0.04 0.03 0.03 0.03 0.02 0.02 0.01 0.02 0.02 0.01 0.01 0.02 0.03 0.04
0.00 0.00 0.00 0.00 0.00 0.00 0.00 0.00 0.00 0.01 0.03 0.04 0.05 0.05 0.04 0.05 0.06 0.06 0.05 0.05 0.04 0.06 0.08 0.08 0.06 0.03 0.03 0.04 0.04 0.03 0.02 0.02 0.02 0.02 0.01 0.01 0.01 0.02
0.01 0.00 0.00 0.00 0.00 0.00 0.00 0.00 0.00 0.01 0.02 0.02 0.03 0.05 0.05 0.05 0.06 0.06 0.06 0.06 0.04 0.03 0.04 0.05 0.07 0.06 0.04 0.03 0.03 0.03 0.03 0.02 0.02 0.02 0.02 0.01 0.01 0.01
0.01 0.01 0.01 0.01 0.00 0.00 0.00 0.00 0.00 0.00 0.01 0.01 0.01 0.02 0.04 0.04 0.05 0.05 0.05 0.05 0.04 0.04 0.04 0.04 0.04 0.05 0.05 0.04 0.02 0.02 0.02 0.02 0.01 0.01 0.01 0.01 0.01 0.01
0.02 0.02 0.01 0.01 0.01 0.01 0.00 0.00 0.00 0.00 0.00 0.00 0.01 0.01 0.02 0.03 0.04 0.04 0.06 0.06 0.05 0.04 0.04 0.03 0.02 0.03 0.03 0.03 0.03 0.03 0.02 0.02 0.02 0.01 0.01 0.01 0.01 0.02
0.02 0.02 0.02 0.01 0.02 0.02 0.01 0.00 0.00 0.00 0.00 0.00 0.01 0.01 0.01 0.02 0.02 0.03 0.04 0.05 0.04 0.05 0.05 0.05 0.04 0.03 0.03 0.03 0.03 0.04 0.03 0.03 0.03 0.02 0.02 0.02 0.02 0.02
0.03 0.03 0.03 0.02 0.02 0.02 0.02 0.01 0.00 0.00 0.01 0.01 0.01 0.01 0.02 0.02 0.02 0.03 0.04 0.04 0.04 0.04 0.04 0.04 0.04 0.03 0.04 0.04 0.05 0.04 0.04 0.04 0.03 0.03 0.02 0.02 0.03 0.02
0.03 0.04 0.03 0.03 0.03 0.03 0.02 0.02 0.01 0.01 0.01 0.01 0.01 0.02 0.02 0.02 0.02 0.02 0.03 0.04 0.05 0.04 0.03 0.04 0.03 0.03 0.02 0.03 0.04 0.05 0.05 0.05 0.04 0.03 0.03 0.03 0.03 0.02
0.03 0.03 0.04 0.04 0.03 0.03 0.03 0.03 0.03 0.02 0.02 0.01 0.01 0.01 0.01 0.01 0.01 0.02 0.03 0.03 0.04 0.05 0.05 0.05 0.03 0.02 0.02 0.02 0.03 0.03 0.04 0.04 0.04 0.03 0.03 0.03 0.03 0.02
0.02 0.03 0.04 0.04 0.03 0.03 0.03 0.03 0.03 0.03 0.03 0.02 0.02 0.02 0.01 0.02 0.02 0.02 0.03 0.03 0.03 0.03 0.03 0.05 0.06 0.05 0.04 0.03 0.02 0.02 0.02 0.03 0.03 0.03 0.03 0.03 0.03 0.03
0.02 0.03 0.03 0.03 0.04 0.03 0.03 0.03 0.03 0.03 0.03 0.03 0.03 0.03 0.03 0.03 0.02 0.02 0.02 0.03 0.03 0.02 0.02 0.02 0.03 0.04 0.04 0.04 0.04 0.03 0.02 0.02 0.03 0.03 0.03 0.03 0.02 0.02
0.01 0.03 0.04 0.05 0.05 0.05 0.04 0.04 0.03 0.04 0.04 0.04 0.04 0.04 0.04 0.05 0.04 0.03 0.03 0.03 0.03 0.02 0.02 0.02 0.02 0.02 0.03 0.03 0.04 0.04 0.04 0.03 0.02 0.02 0.03 0.03 0.02 0.02
0.01 0.02 0.04 0.06 0.07 0.07 0.06 0.05 0.05 0.05 0.06 0.06 0.06 0.05 0.05 0.05 0.06 0.04 0.04 0.04 0.03 0.03 0.03 0.03 0.02 0.02 0.02 0.02 0.02 0.03 0.03 0.03 0.03 0.03 0.03 0.03 0.02 0.02
0.01 0.02 0.03 0.05 0.07 0.08 0.07 0.07 0.06 0.06 0.07 0.09 0.08 0.06 0.05 0.06 0.07 0.06 0.05 0.05 0.04 0.04 0.05 0.05 0.04 0.03 0.02 0.01 0.01 0.01 0.02 0.02 0.03 0.03 0.03 0.02 0.02 0.02
0.01 0.02 0.03 0.05 0.08 0.09 0.08 0.08 0.08 0.07 0.08 0.08 0.10 0.08 0.07 0.07 0.08 0.08 0.06 0.05 0.06 0.06 0.06 0.06 0.05 0.04 0.03 0.02 0.01 0.01 0.01 0.01 0.02 0.02 0.02 0.02 0.02 0.02
0.01 0.01 0.03 0.05 0.07 0.08 0.08 0.08 0.09 0.09 0.08 0.09 0.10 0.12 0.12 0.11 0.10 0.10 0.08 0.07 0.07 0.08 0.08 0.06 0.05 0.06 0.06 0.05 0.03 0.02 0.01 0.01 0.02 0.02 0.02 0.01 0.01 0.02
0.01 0.02 0.03 0.04 0.07 0.07 0.07 0.07 0.09 0.09 0.09 0.09 0.11 0.13 0.16 0.18 0.16 0.14 0.13 0.11 0.09 0.08 0.09 0.08 0.07 0.07 0.06 0.05 0.03 0.02 0.01 0.01 0.02 0.02 0.01 0.01 0.01 0.01
0.02 0.02 0.03 0.04 0.07 0.08 0.07 0.07 0.08 0.09 0.08 0.08 0.10 0.13 0.15 0.18 0.19 0.19 0.18 0.16 0.14 0.12 0.11 0.11 0.10 0.09 0.08 0.06 0.04 0.03 0.02 0.02 0.01 0.01 0.01 0.01 0.00 0.00
MSLP
1017.24 1017.30 1017.38 1017.47 1017.56 1017.61 1017.63 1017.61 1017.54 1017.44 1017.31 1017.17 1017.03 1016.90 1016.77 1016.66 1016.56 1016.49 1016.44 1016.42 1016.43 1016.47 1016.54 1016.63 1016.72 1016.81 1016.87 1016.90 1016.88 1016.83 1016.76 1016.68 1016.61 1016.57 1016.57 1016.60 1016.68 1016.77
1017.43 1017.48 1017.54 1017.61 1017.67 1017.72 1017.74 1017.73 1017.70 1017.65 1017.58 1017.49 1017.40 1017.30 1017.19 1017.08 1016.96 1016.86 1016.77 1016.71 1016.69 1016.71 1016.77 1016.85 1016.95 1017.05 1017.12 1017.15 1017.13 1017.07 1016.98 1016.87 1016.78 1016.70 1016.66 1016.65 1016.68 1016.73
1017.54 1017.60 1017.66 1017.72 1017.77 1017.80 1017.83 1017.84 1017.84 1017.83 1017.82 1017.80 1017.76 1017.70 1017.61 1017.50 1017.37 1017.23 1017.10 1016.99 1016.92 1016.90 1016.92 1016.98 1017.07 1017.16 1017.23 1017.27 1017.26 1017.22 1017.14 1017.04 1016.94 1016.86 1016.81 1016.79 1016.79 1016.82
1017.57 1017.64 1017.71 1017.76 1017.81 1017.84 1017.87 1017.90 1017.94 1017.98 1018.02 1018.05 1018.07 1018.05 1017.99 1017.89 1017.75 1017.59 1017.42 1017.26 1017.13 1017.05 1017.02 1017.04 1017.09 1017.16 1017.22 1017.26 1017.27 1017.24 1017.19 1017.11 1017.04 1016.98 1016.94 1016.92 1016.92 1016.93
1017.48 1017.58 1017.66 1017.73 1017.77 1017.81 1017.86 1017.90 1017.97 1018.05 1018.13 1018.21 1018.27 1018.30 1018.27 1018.19 1018.06 1017.88 1017.68 1017.47 1017.30 1017.16 1017.07 1017.03 1017.03 1017.06 1017.10 1017.13 1017.15 1017.14 1017.11 1017.07 1017.03 1017.00 1016.98 1016.98 1016.98 1016.98
1017.30 1017.42 1017.52 1017.59 1017.65 1017.70 1017.75 1017.81 1017.89 1017.99 1018.10 1018.22 1018.32 1018.38 1018.39 1018.34 1018.22 1018.05 1017.84 1017.62 1017.40 1017.22 1017.08 1016.99 1016.94 1016.93 1016.93 1016.94 1016.95 1016.94 1016.93 1016.91 1016.90 1016.89 1016.90 1016.91 1016.92 1016.93
1017.05 1017.18 1017.30 1017.38 1017.44 1017.49 1017.54 1017.59 1017.67 1017.78 1017.90 1018.03 1018.16 1018.25 1018.29 1018.27 1018.19 1018.04 1017.85 1017.64 1017.42 1017.22 1017.05 1016.93 1016.84 1016.78 1016.75 1016.73 1016.71 1016.70 1016.69 1016.68 1016.67 1016.68 1016.70 1016.72 1016.73 1016.74
1016.79 1016.93 1017.04 1017.12 1017.18 1017.21 1017.24 1017.27 1017.33 1017.41 1017.52 1017.64 1017.77 1017.88 1017.94 1017.96 1017.92 1017.82 1017.67 1017.50 1017.31 1017.13 1016.96 1016.83 1016.72 1016.64 1016.58 1016.54 1016.50 1016.47 1016.44 1016.42 1016.41 1016.41 1016.43 1016.45 1016.46 1016.47
1016.59 1016.71 1016.81 1016.87 1016.89 1016.90 1016.89 1016.88 1016.89 1016.92 1016.99 1017.08 1017.18 1017.28 1017.36 1017.41 1017.41 1017.36 1017.28 1017.16 1017.03 1016.90 1016.77 1016.66 1016.56 1016.49 1016.42 1016.36 1016.31 1016.26 1016.22 1016.19 1016.17 1016.16 1016.16 1016.17 1016.18 1016.19
1016.50 1016.59 1016.65 1016.67 1016.66 1016.61 1016.54 1016.47 1016.41 1016.38 1016.37 1016.40 1016.46 1016.53 1016.60 1016.65 1016.69 1016.69 1016.67 1016.62 1016.56 1016.50 1016.43 1016.37 1016.32 1016.27 1016.22 1016.17 1016.13 1016.08 1016.04 1016.00 1015.98 1015.96 1015.95 1015.95 1015.96 1015.97
1016.57 1016.61 1016.62 1016.59 1016.52 1016.41 1016.27 1016.12 1015.98 1015.86 1015.78 1015.72 1015.71 1015.72 1015.75 1015.79 1015.83 1015.87 1015.89 1015.90 1015.91 1015.91 1015.91 1015.91 1015.91 1015.91 1015.91 1015.90 1015.89 1015.87 1015.86 1015.84 1015.82 1015.81 1015.81 1015.82 1015.83 1015.85
1016.76 1016.75 1016.71 1016.62 1016.49 1016.32 1016.12 1015.89 1015.67 1015.46 1015.28 1015.14 1015.04 1014.98 1014.95 1014.94 1014.96 1014.98 1015.01 1015.05 1015.09 1015.14 1015.19 1015.25 1015.31 1015.36 1015.42 1015.47 1015.52 1015.56 1015.59 1015.62 1015.65 1015.68 1015.71 1015.74 1015.77 1015.81
1017.03 1016.97 1016.89 1016.76 1016.58 1016.35 1016.09 1015.80 1015.51 1015.22 1014.96 1014.73 1014.54 1014.39 1014.28 1014.20 1014.16 1014.14 1014.14 1014.15 1014.19 1014.24 1014.31 1014.39 1014.48 1014.59 1014.70 1014.82 1014.94 1015.06 1015.17 1015.28 1015.38 1015.48 1015.56 1015.65 1015.73 1015.80
1017.30 1017.21 1017.10 1016.94 1016.73 1016.47 1016.17 1015.84 1015.50 1015.15 1014.82 1014.52 1014.25 1014.02 1013.82 1013.65 1013.52 1013.42 1013.34 1013.29 1013.27 1013.27 1013.31 1013.38 1013.47 1013.60 1013.75 1013.93 1014.12 1014.33 1014.53 1014.74 1014.94 1015.13 1015.30 1015.46 1015.60 1015.73
1017.47 1017.38 1017.25 1017.08 1016.87 1016.60 1016.29 1015.95 1015.58 1015.22 1014.85 1014.50 1014.17 1013.87 1013.59 1013.33 1013.10 1012.89 1012.70 1012.54 1012.42 1012.33 1012.28 1012.28 1012.34 1012.45 1012.61 1012.82 1013.07 1013.36 1013.66 1013.97 1014.28 1014.57 1014.84 1015.09 1015.31 1015.51
1017.48 1017.40 1017.28 1017.12 1016.92 1016.66 1016.37 1016.04 1015.69 1015.33 1014.96 1014.59 1014.24 1013.89 1013.54 1013.21 1012.88 1012.56 1012.25 1011.96 1011.70 1011.47 1011.30 1011.20 1011.17 1011.22 1011.35 1011.56 1011.84 1012.18 1012.57 1012.98 1013.39 1013.79 1014.17 1014.52 1014.83 1015.10
1017.27 1017.21 1017.12 1016.99 1016.81 1016.59 1016.33 1016.04 1015.73 1015.39 1015.05 1014.70 1014.35 1013.98 1013.61 1013.22 1012.81 1012.39 1011.97 1011.54 1011.13 1010.76 1010.44 1010.20 1010.04 1010.00 1010.06 1010.24 1010.52 1010.89 1011.33 1011.82 1012.33 1012.83 1013.31 1013.75 1014.15 1014.50
1016.84 1016.81 1016.75 1016.65 1016.51 1016.32 1016.11 1015.86 1015.59 1015.31 1015.01 1014.70 1014.38 1014.03 1013.66 1013.25 1012.80 1012.32 1011.80 1011.25 1010.71 1010.19 1009.71 1009.32 1009.03 1008.86 1008.83 1008.94 1009.19 1009.56 1010.03 1010.58 1011.16 1011.75 1012.33 1012.86 1013.35 1013.77
1016.23 1016.22 1016.19 1016.12 1016.00 1015.85 1015.67 1015.46 1015.24 1015.00 1014.76 1014.50 1014.23 1013.93 1013.59 1013.19 1012.74 1012.22 1011.64 1011.01 1010.36 1009.71 1009.10 1008.55 1008.12 1007.82 1007.68 1007.71 1007.91 1008.26 1008.75 1009.33 1009.97 1010.64 1011.31 1011.93 1012.50 1013.00
1015.48 1015.50 1015.48 1015.43 1015.33 1015.19 1015.03 1014.84 1014.65 1014.45 1014.25 1014.05 1013.83 1013.58 1013.29 1012.94 1012.51 1011.99 1011.39 1010.72 1009.99 1009.25 1008.52 1007.85 1007.29 1006.87 1006.62 1006.56 1006.69 1007.02 1007.50 1008.11 1008.81 1009.56 1010.31 1011.03 1011.69 1012.28
1014.67 1014.70 1014.69 1014.63 1014.53 1014.38 1014.21 1014.03 1013.84 1013.66 1013.48 1013.32 1013.15 1012.96 1012.73 1012.43 1012.05 1011.56 1010.97 1010.29 1009.52 1008.71 1007.90 1007.13 1006.46 1005.93 1005.58 1005.44 1005.51 1005.81 1006.29 1006.93 1007.69 1008.51 1009.36 1010.18 1010.95 1011.64
1013.85 1013.88 1013.86 1013.78 1013.65 1013.48 1013.28 1013.07 1012.86 1012.66 1012.50 1012.35 1012.22 1012.07 1011.89 1011.65 1011.32 1010.88 1010.33 1009.65 1008.87 1008.02 1007.15 1006.31 1005.55 1004.93 1004.50 1004.28 1004.31 1004.58 1005.07 1005.74 1006.57 1007.48 1008.44 1009.38 1010.27 1011.08
1013.04 1013.06 1013.02 1012.91 1012.74 1012.52 1012.27 1012.01 1011.75 1011.53 1011.34 1011.19 1011.07 1010.95 1010.82 1010.62 1010.34 1009.95 1009.43 1008.77 1008.00 1007.13 1006.22 1005.33 1004.50 1003.81 1003.31 1003.04 1003.03 1003.28 1003.78 1004.50 1005.40 1006.42 1007.49 1008.57 1009.60 1010.54
Thickness
5682 5681 5680 5680 5680 5680 5679 5678 5674 5672 5675 5682 5688 5694 5697 5700 5703 5705 5708 5711 5713 5715 5717 5719 5721 5722 5724 5725 5726 5728 5729 5730 5731 5732 5732 5732 5732 5731
5683 5681 5681 5680 5680 5680 5680 5679 5678 5675 5674 5680 5685 5691 5694 5698 5700 5702 5705 5707 5709 5711 5713 5715 5716 5718 5719 5721 5722 5723 5724 5725 5726 5727 5728 5728 5728 5728
5683 5681 5680 5680 5679 5679 5679 5678 5678 5677 5675 5678 5683 5688 5691 5693 5696 5699 5701 5703 5705 5707 5709 5711 5712 5714 5715 5716 5717 5719 5720 5721 5722 5722 5723 5723 5723 5723
5682 5680 5680 5680 5679 5678 5677 5677 5677 5677 5675 5675 5679 5683 5686 5689 5692 5693 5696 5698 5700 5703 5705 5706 5707 5709 5710 5711 5712 5714 5715 5716 5716 5717 5718 5718 5718 5718
5681 5679 5678 5678 5677 5677 5677 5676 5675 5676 5675 5674 5676 5679 5681 5684 5686 5688 5691 5693 5695 5698 5700 5702 5703 5704 5705 5706 5707 5708 5709 5710 5711 5711 5712 5712 5712 5712
5680 5679 5678 5677 5676 5676 5676 5675 5674 5673 5672 5672 5672 5674 5675 5678 5680 5680 5682 5686 5688 5692 5694 5696 5698 5699 5700 5701 5702 5703 5704 5704 5705 5705 5706 5706 5706 5706
5676 5676 5676 5676 5676 5676 5675 5674 5672 5670 5669 5669 5668 5669 5670 5672 5673 5675 5676 5678 5681 5684 5686 5689 5690 5692 5693 5695 5696 5697 5698 5698 5699 5699 5699 5699 5699 5699
5670 5670 5671 5672 5673 5674 5675 5674 5673 5669 5667 5666 5665 5666 5668 5669 5670 5670 5670 5670 5672 5678 5679 5680 5683 5684 5686 5688 5690 5691 5691 5692 5692 5692 5692 5692 5693 5692
5663 5662 5664 5666 5666 5667 5669 5671 5670 5670 5669 5667 5665 5665 5666 5667 5667 5666 5666 5666 5668 5672 5672 5672 5675 5676 5679 5681 5682 5683 5684 5685 5685 5685 5685 5685 5685 5685
5656 5655 5654 5655 5657 5658 5660 5662 5663 5665 5665 5665 5665 5666 5666 5666 5665 5665 5664 5663 5664 5666 5667 5665 5667 5669 5672 5673 5674 5676 5677 5677 5677 5678 5677 5677 5677 5677
5648 5646 5645 5646 5648 5650 5650 5652 5655 5658 5660 5661 5661 5662 5662 5662 5661 5658 5656 5654 5655 5658 5660 5660 5661 5661 5662 5664 5667 5668 5669 5669 5669 5670 5670 5670 5669 5669
5639 5637 5636 5636 5638 5639 5639 5641 5644 5649 5651 5652 5653 5654 5655 5655 5655 5653 5652 5649 5649 5650 5654 5654 5654 5653 5653 5656 5658 5659 5660 5661 5661 5661 5661 5661 5661 5661
5627 5626 5625 5626 5627 5629 5630 5632 5636 5639 5641 5642 5644 5645 5645 5646 5647 5648 5648 5647 5645 5646 5650 5648 5648 5647 5647 5647 5648 5651 5652 5652 5652 5652 5653 5653 5653 5653
5616 5615 5615 5616 5617 5618 5620 5623 5626 5629 5630 5632 5632 5634 5635 5636 5638 5640 5641 5641 5643 5645 5646 5644 5643 5642 5640 5639 5640 5641 5642 5643 5644 5644 5644 5644 5644 5644
5605 5605 5605 5605 5605 5606 5609 5612 5614 5615 5618 5620 5622 5624 5626 5628 5628 5629 5630 5631 5633 5635 5637 5638 5638 5637 5636 5636 5635 5635 5634 5634 5635 5635 5635 5636 5636 5635
5593 5593 5593 5592 5592 5593 5597 5599 5600 5602 5605 5608 5611 5613 5614 5615 5616 5618 5618 5619 5620 5623 5626 5628 5629 5629 5628 5629 5628 5628 5629 5628 5628 5628 5627 5627 5627 5627
5581 5579 5577 5576 5577 5579 5581 5584 5586 5588 5590 5594 5596 5598 5600 5602 5604 5606 5607 5608 5608 5612 5614 5616 5618 5619 5621 5621 5619 5620 5620 5620 5621 5620 5618 5617 5617 5618
5566 5563 5561 5560 5561 5563 5565 5568 5571 5573 5575 5578 5580 5583 5586 5588 5590 5593 5594 5596 5598 5601 5603 5605 5604 5604 5604 5607 5612 5613 5612 5612 5611 5611 5611 5609 5608 5609
5550 5547 5546 5545 5545 5546 5548 5550 5554 5557 5558 5561 5564 5567 5570 5573 5576 5579 5582 5584 5587 5590 5593 5594 5595 5595 5595 5599 5602 5604 5605 5603 5602 5601 5601 5602 5601 5601
5536 5533 5531 5531 5531 5531 5532 5534 5537 5540 5542 5545 5548 5551 5554 5557 5561 5565 5568 5571 5575 5578 5580 5583 5585 5589 5591 5593 5592 5592 5595 5596 5595 5593 5591 5590 5590 5591
5524 5521 5518 5517 5516 5516 5517 5519 5521 5523 5526 5529 5533 5535 5539 5542 5547 5551 5555 5559 5561 5565 5570 5574 5579 5581 5581 5579 5579 5581 5583 5587 5590 5589 5585 5581 5578 5578
5512 5509 5507 5504 5503 5503 5503 5504 5506 5509 5512 5514 5518 5521 5524 5528 5533 5537 5542 5546 5550 5555 5560 5564 5566 5567 5568 5571 5573 5572 5571 5574 5577 5579 5581 5583 5579 5576
5500 5497 5495 5493 5491 5490 5490 5490 5493 5496 5498 5501 5504 5508 5511 5515 5520 5524 5529 5534 5538 5543 5546 5550 5553 5557 5560 5563 5564 5563 5563 5564 5565 5565 5567 5572 5575 5577